Weather in Namangan

Uzbekistan     41˚00′00″N   71˚40′21″E
temp.,
°C
wind,
m/s
gust,
m/s
humid.,
%
clouds,
%
prec.,
mm/h
press.,
hPa
HPBL,
m
3 december, thu
thu323:00+7˚ene1168100 0.1 102623
02:00+6˚sw0072100 0.1 102622
05:00+6˚ne2272100 0.1 102744
08:00+6˚ne1273100 0.0 102827
11:00+7˚n1271100 0.0 102776
14:00+10˚e2269100 0.0 1025497
17:00+8˚wnw0180100 0.0 102722
20:00+8˚nne1179100 0.0 102627
4 december, fri
fri423:00+7˚ne1283100 0.1 102540
02:00+7˚sw0187100 0.1 102422
05:00+7˚wsw1189100 0.4 102461
08:00+6˚sw2491100 0.6 1025236
11:00+6˚sw2377100 1.3 1025306
14:00+8˚sse2362100 0.0 1024692
17:00+7˚se2470100 0.0 1025241
20:00+5˚s1466100 0.0 1027247
5 december, sat
sat523:00+4˚sse1269100 0.0 1027108
02:00+4˚se1269100 0.0 1027106
05:00+3˚ese2270100 0.0 102886
08:00+2˚e4691100 0.0 1030292
11:00+5˚e337599 0.0 1028627
14:00+7˚ese235794 0.1 10271097
17:00+5˚ene227289 0.1 102984
20:00+4˚ne3378100 0.0 103190
6 december, sun
sun623:00+3˚n3474100 0.0 1030117
02:00+2˚n236396 0.0 103143
05:00+2˚n225765 0.0 103025
08:00+2˚nne12556 0.0 103125
11:00+6˚e124142 0.0 1029368
14:00+8˚sse113811 0.0 1027573
17:00+5˚ssw12525 0.0 102822
20:00+4˚n125619 0.0 102722
7 december, mon
mon723:00+3˚ne116059 0.0 102622
02:00+3˚e1161100 0.0 102523
05:00+3˚ne1258100 0.0 102326
08:00+3˚sw0156100 0.0 102422
11:00+5˚wsw2254100 0.1 1024229
14:00+5˚wsw2362100 0.1 1025532
17:00+4˚n1174100 0.2 1028198
20:00+3˚nne3484100 0.1 1030189